Weather History for Lufkin, TX

Change the Weather History Date:

Tuesday, December 4, 2012

  Actual Average Record
Temperature  
Mean Temperature 70 °F 52 °F  
Max Temperature 78 °F 63 °F 89 °F (1910)
Min Temperature 61 °F 41 °F 20 °F (1929)
Degree Days  
Heating Degree Days 0 13  
Month to date heating degree days 0 51  
Since 1 July heating degree days 283 358  
Cooling Degree Days 5 1  
Month to date cooling degree days 27 4  
Year to date cooling degree days 3198 2587  
Growing Degree Days 20 (Base 50)    
Moisture  
Dew Point 64 °F    
Average Humidity 78    
Maximum Humidity 93    
Minimum Humidity 62    
Precipitation  
Precipitation T in 0.15 in 1.45 in (1913)
Month to date precipitation T 0.62  
Year to date precipitation 38.72 45.13  
Snow  
Snow 0.00 in - - ()
Month to date snowfall 0.0  
Since 1 July snowfall 0.0  
Snow Depth 0.00 in    
Sea Level Pressure  
Sea Level Pressure 30.11 in    
Wind  
Wind Speed 4 mph (South)    
Max Wind Speed 14 mph    
Max Gust Speed 16 mph    
Visibility 8 miles    
Events Rain    
T = Trace of Precipitation, MM = Missing Value Source: NWS Daily Summary

Daily Weather History Graph

Daily Weather History Graph

Search for Another Location

Airport:

Trip Planner

Search our weather history database for the weather conditions in past years. The results will help you decide how hot, cold, wet, or windy it might be!

Date:

Astronomy

Dec. 04, 2012 Rise Set
Actual Time 7:02 AM CST 5:16 PM CST
Civil Twilight 6:36 AM CST 5:42 PM CST
Nautical Twilight 6:06 AM CST 6:12 PM CST
Astronomical Twilight 5:36 AM CST 6:42 PM CST
Moon 10:49 PM CST (12/4) 11:10 AM CST (12/4)
Length of Visible Light 11h 06m
Length of Day
10h 13m
Waning Gibbous, 69% of the Moon is Illuminated
Dec 4
Waning Gibbous
Dec 6
Last Quarter
Dec 13
New
Dec 19
First Quarter
Dec 28
Full

Hourly Weather History & Observations

Time (CST) Temp. Dew Point Humidity Pressure Visibility Wind Dir Wind Speed Gust Speed Precip Events Conditions
12:22 AM 69.8 °F 64.4 °F 83% 30.05 in 10.0 mi SSE 5.8 mph - N/A   Partly Cloudy
12:53 AM 69.1 °F 64.9 °F 87% 30.05 in 10.0 mi South 4.6 mph - N/A   Scattered Clouds
1:01 AM 69.8 °F 64.4 °F 83% 30.07 in 10.0 mi South 3.5 mph - N/A   Mostly Cloudy
1:46 AM 66.2 °F 64.4 °F 94% 30.07 in 8.0 mi Calm Calm - N/A   Mostly Cloudy
1:53 AM 66.9 °F 64.0 °F 90% 30.06 in 9.0 mi Calm Calm - N/A   Mostly Cloudy
2:04 AM 66.2 °F 64.4 °F 94% 30.06 in 7.0 mi SE 4.6 mph - N/A   Mostly Cloudy
2:37 AM 64.4 °F 62.6 °F 94% 30.07 in 6.0 mi ESE 5.8 mph - N/A   Partly Cloudy
2:53 AM 66.9 °F 64.0 °F 90% 30.07 in 8.0 mi SE 3.5 mph - N/A   Partly Cloudy
3:20 AM 66.2 °F 62.6 °F 88% 30.09 in 7.0 mi ESE 4.6 mph - N/A   Mostly Cloudy
3:53 AM 68.0 °F 64.9 °F 90% 30.07 in 8.0 mi SSE 3.5 mph - N/A   Overcast
4:36 AM 66.2 °F 64.4 °F 94% 30.08 in 7.0 mi SE 6.9 mph - N/A   Overcast
4:53 AM 66.9 °F 64.0 °F 90% 30.07 in 6.0 mi SSE 5.8 mph - N/A   Overcast
5:15 AM 66.2 °F 64.4 °F 94% 30.07 in 7.0 mi SE 10.4 mph - N/A   Mostly Cloudy
5:32 AM 66.2 °F 64.4 °F 94% 30.08 in 8.0 mi SSE 9.2 mph - N/A   Mostly Cloudy
5:53 AM 66.9 °F 64.0 °F 90% 30.07 in 9.0 mi South 8.1 mph - N/A   Overcast
6:38 AM 68.0 °F 64.4 °F 88% 30.09 in 7.0 mi South 4.6 mph - N/A   Overcast
6:53 AM 68.0 °F 64.9 °F 90% 30.09 in 9.0 mi South 3.5 mph - N/A   Overcast
7:46 AM 69.8 °F 64.4 °F 83% 30.13 in 6.0 mi South 3.5 mph - N/A   Overcast
7:53 AM 69.1 °F 66.0 °F 90% 30.12 in 7.0 mi SE 4.6 mph - N/A   Mostly Cloudy
8:14 AM 69.8 °F 66.2 °F 88% 30.13 in 8.0 mi SSE 4.6 mph - N/A   Mostly Cloudy
9:06 AM 71.6 °F 66.2 °F 83% 30.15 in 9.0 mi SSE 3.5 mph - N/A   Mostly Cloudy
9:26 AM 71.6 °F 66.2 °F 83% 30.16 in 10.0 mi South 4.6 mph - 0.00 in Rain Light Rain
9:53 AM 72.0 °F 66.9 °F 84% 30.16 in 10.0 mi South 3.5 mph - 0.00 in   Overcast
10:30 AM 73.4 °F 66.2 °F 78% 30.16 in 10.0 mi SSW 6.9 mph - N/A   Overcast
10:53 AM 75.0 °F 66.0 °F 73% 30.14 in 10.0 mi South 9.2 mph - N/A   Mostly Cloudy
11:06 AM 75.2 °F 66.2 °F 73% 30.14 in 10.0 mi South 9.2 mph - N/A   Scattered Clouds
11:27 AM 75.2 °F 66.2 °F 73% 30.13 in 10.0 mi SW 6.9 mph - N/A   Mostly Cloudy
11:53 AM 78.1 °F 64.9 °F 64% 30.11 in 10.0 mi SSW 10.4 mph - N/A   Scattered Clouds
12:53 PM 73.9 °F 64.0 °F 71% 30.11 in 10.0 mi West 5.8 mph - N/A   Scattered Clouds
1:53 PM 71.1 °F 66.0 °F 84% 30.10 in 2.5 mi South 5.8 mph - N/A Rain Rain
2:06 PM 71.6 °F 66.2 °F 83% 30.08 in 4.0 mi SE 11.5 mph - N/A Rain Light Rain
2:33 PM 69.8 °F 66.2 °F 88% 30.08 in 8.0 mi WSW 5.8 mph - N/A Rain Light Rain
2:49 PM 69.8 °F 66.2 °F 88% 30.09 in 8.0 mi WSW 5.8 mph - N/A   Mostly Cloudy
2:53 PM 70.0 °F 64.9 °F 84% 30.08 in 9.0 mi WSW 5.8 mph - N/A   Mostly Cloudy
3:53 PM 68.0 °F 64.0 °F 87% 30.06 in 8.0 mi South 3.5 mph - N/A   Clear
4:29 PM 68.0 °F 64.4 °F 88% 30.08 in 6.0 mi Calm Calm - N/A   Partly Cloudy
5:09 PM 68.0 °F 64.4 °F 88% 30.11 in 9.0 mi Calm Calm - N/A   Mostly Cloudy
5:27 PM 68.0 °F 64.4 °F 88% 30.11 in 7.0 mi Calm Calm - N/A   Overcast
5:53 PM 66.0 °F 63.0 °F 90% 30.12 in 5.0 mi Calm Calm - N/A   Overcast
6:51 PM 66.2 °F 62.6 °F 88% 30.12 in 7.0 mi Calm Calm - N/A   Overcast
7:53 PM 64.9 °F 61.0 °F 87% 30.12 in 10.0 mi Calm Calm - N/A   Mostly Cloudy
8:53 PM 64.9 °F 61.0 °F 87% 30.14 in 10.0 mi Calm Calm - N/A   Overcast
9:53 PM 63.0 °F 59.0 °F 87% 30.14 in 7.0 mi WSW 3.5 mph - N/A   Mostly Cloudy
11:13 PM 62.6 °F 59.0 °F 88% 30.15 in 3.0 mi Calm Calm - N/A   Scattered Clouds
11:27 PM 62.6 °F 59.0 °F 88% 30.16 in 2.5 mi Calm Calm - N/A   Mostly Cloudy
11:39 PM 62.6 °F 59.0 °F 88% 30.15 in 1.8 mi Calm Calm - N/A   Scattered Clouds
11:45 PM 62.6 °F 59.0 °F 88% 30.16 in 3.0 mi Calm Calm - N/A   Scattered Clouds
11:53 PM 62.1 °F 59.0 °F 90% 30.15 in 9.0 mi Calm Calm - N/A   Mostly Cloudy